• In France
  • List of Countries
  • For 7 days
  • Water Temperature
  • Satellite Maps
  • Weather Map
  • Weather Widgets
  • user-avatar
    Login

    Hourly Weather San Isidro

    Today, 21 May, Monday

    Time Temperature Precipitation Wind Pressure Humidity
    00:00 +22°C° 0 mm 0 mps 697 mmHg 91%
    01:00 +21°C° 0.5 mm 0 mps 697 mmHg 91%
    02:00 +21°C° 0.5 mm 0 mps 696 mmHg 91%
    03:00 +21°C° 0.5 mm 0 mps 696 mmHg 91%
    04:00 +21°C° 0.7 mm 0 mps 696 mmHg 90%
    05:00 +22°C° 0.7 mm 0 mps 696 mmHg 90%
    06:00 +22°C° 0.7 mm 0 mps 697 mmHg 89%
    07:00 +23°C° 0.6 mm 0 mps 697 mmHg 84%
    08:00 +25°C° 0.6 mm 0 mps 697 mmHg 79%
    09:00 +26°C° 0.6 mm 0 mps 698 mmHg 74%
    10:00 +28°C° 0.8 mm 1 mps 698 mmHg 73%
    11:00 +29°C° 0.8 mm 1 mps 697 mmHg 72%
    12:00 +29°C° 0.8 mm 1 mps 697 mmHg 72%
    13:00 +28°C° 2.3 mm 1 mps 697 mmHg 74%
    14:00 +28°C° 2.3 mm 1 mps 696 mmHg 77%
    15:00 +28°C° 2.3 mm 1 mps 696 mmHg 80%
    16:00 +27°C° 4.6 mm 1 mps 696 mmHg 84%
    17:00 +26°C° 4.6 mm 1 mps 696 mmHg 89%
    18:00 +23°C° 4.6 mm 0 mps 696 mmHg 93%
    19:00 +23°C° 3.6 mm 0 mps 696 mmHg 93%
    20:00 +22°C° 3.6 mm 0 mps 697 mmHg 93%
    21:00 +22°C° 3.6 mm 0 mps 697 mmHg 93%
    22:00 +22°C° 2 mm 0 mps 697 mmHg 93%
    23:00 +22°C° 2 mm 0 mps 697 mmHg 92%

    Tomorrow, 22 May, Tuesday

    Time Temperature Precipitation Wind Pressure Humidity
    00:00 +22°C° 2 mm 0 mps 697 mmHg 92%
    01:00 +22°C° 0.7 mm 0 mps 696 mmHg 92%
    02:00 +22°C° 0.7 mm 0 mps 696 mmHg 92%
    03:00 +22°C° 0.7 mm 0 mps 696 mmHg 92%
    04:00 +22°C° 0.2 mm 0 mps 696 mmHg 91%
    05:00 +22°C° 0.2 mm 0 mps 696 mmHg 90%
    06:00 +22°C° 0.2 mm 0 mps 696 mmHg 90%
    07:00 +23°C° 0.1 mm 0 mps 697 mmHg 84%
    08:00 +25°C° 0.1 mm 0 mps 697 mmHg 79%
    09:00 +26°C° 0.1 mm 0 mps 698 mmHg 74%
    10:00 +28°C° 0.4 mm 1 mps 698 mmHg 73%
    11:00 +29°C° 0.4 mm 1 mps 698 mmHg 73%
    12:00 +29°C° 0.4 mm 1 mps 697 mmHg 72%
    13:00 +28°C° 1.4 mm 1 mps 697 mmHg 75%
    14:00 +28°C° 1.4 mm 1 mps 696 mmHg 78%
    15:00 +27°C° 1.4 mm 1 mps 696 mmHg 81%
    16:00 +26°C° 3 mm 1 mps 696 mmHg 85%
    17:00 +25°C° 3 mm 1 mps 696 mmHg 89%
    18:00 +24°C° 3 mm 1 mps 696 mmHg 93%
    19:00 +24°C° 3 mm 1 mps 697 mmHg 93%
    20:00 +24°C° 3 mm 1 mps 697 mmHg 92%
    21:00 +24°C° 3 mm 1 mps 698 mmHg 92%
    22:00 +24°C° 0.9 mm 1 mps 697 mmHg 92%
    23:00 +22°C° 0.9 mm 0 mps 697 mmHg 92%

    Day after tomorrow, 23 May, Wednesday

    Time Temperature Precipitation Wind Pressure Humidity
    00:00 +22°C° 0.9 mm 0 mps 697 mmHg 92%
    01:00 +22°C° 0.9 mm 0 mps 697 mmHg 92%
    02:00 +22°C° 0.9 mm 0 mps 696 mmHg 93%
    03:00 +22°C° 0.9 mm 0 mps 696 mmHg 93%
    04:00 +22°C° 1.1 mm 0 mps 696 mmHg 92%
    05:00 +22°C° 1.1 mm 0 mps 697 mmHg 92%
    06:00 +22°C° 1.1 mm 0 mps 697 mmHg 91%
    07:00 +23°C° 0.6 mm 0 mps 697 mmHg 88%
    08:00 +24°C° 0.6 mm 0 mps 698 mmHg 84%
    09:00 +27°C° 0.6 mm 1 mps 699 mmHg 80%
    10:00 +27°C° 0.4 mm 1 mps 698 mmHg 78%
    11:00 +28°C° 0.4 mm 1 mps 698 mmHg 76%
    12:00 +29°C° 0.4 mm 1 mps 698 mmHg 74%
    13:00 +28°C° 1.1 mm 1 mps 697 mmHg 76%
    14:00 +28°C° 1.1 mm 1 mps 697 mmHg 78%
    15:00 +27°C° 1.1 mm 1 mps 696 mmHg 80%
    16:00 +26°C° 1.8 mm 1 mps 696 mmHg 84%
    17:00 +26°C° 1.8 mm 1 mps 697 mmHg 88%
    18:00 +23°C° 1.8 mm 0 mps 697 mmHg 92%
    19:00 +23°C° 1.2 mm 0 mps 697 mmHg 93%
    20:00 +22°C° 1.2 mm 0 mps 698 mmHg 93%
    21:00 +22°C° 1.2 mm 0 mps 698 mmHg 94%
    22:00 +22°C° 0.8 mm 0 mps 698 mmHg 93%
    23:00 +22°C° 0.8 mm 0 mps 698 mmHg 93%

    24 May, Thursday

    Time Temperature Precipitation Wind Pressure Humidity
    00:00 +22°C° 0.8 mm 0 mps 698 mmHg 93%
    01:00 +22°C° 0.6 mm 0 mps 697 mmHg 93%
    02:00 +22°C° 0.6 mm 0 mps 697 mmHg 93%
    03:00 +22°C° 0.6 mm 0 mps 697 mmHg 93%
    04:00 +22°C° 0.2 mm 0 mps 697 mmHg 92%
    05:00 +22°C° 0.2 mm 0 mps 697 mmHg 92%
    06:00 +22°C° 0.2 mm 0 mps 697 mmHg 91%
    07:00 +23°C° 0.3 mm 0 mps 698 mmHg 86%
    08:00 +27°C° 0.3 mm 1 mps 699 mmHg 81%
    09:00 +28°C° 0.3 mm 1 mps 699 mmHg 76%
    10:00 +28°C° 1 mm 1 mps 699 mmHg 75%
    11:00 +28°C° 1 mm 1 mps 698 mmHg 75%
    12:00 +29°C° 1 mm 1 mps 698 mmHg 75%
    13:00 +28°C° 1.8 mm 1 mps 697 mmHg 76%
    14:00 +28°C° 1.8 mm 1 mps 697 mmHg 78%
    15:00 +27°C° 1.8 mm 2 mps 696 mmHg 79%
    16:00 +27°C° 2.4 mm 1 mps 697 mmHg 83%
    17:00 +26°C° 2.4 mm 1 mps 697 mmHg 88%
    18:00 +23°C° 2.4 mm 0 mps 697 mmHg 92%
    19:00 +23°C° 2.2 mm 0 mps 697 mmHg 92%
    20:00 +22°C° 2.2 mm 0 mps 698 mmHg 93%
    21:00 +22°C° 2.2 mm 0 mps 698 mmHg 93%
    22:00 +22°C° 1.2 mm 0 mps 698 mmHg 93%
    23:00 +22°C° 1.2 mm 0 mps 698 mmHg 93%

    25 May, Friday

    Time Temperature Precipitation Wind Pressure Humidity
    00:00 +22°C° 1.2 mm 0 mps 698 mmHg 93%
    01:00 +22°C° 0.5 mm 0 mps 697 mmHg 93%
    02:00 +22°C° 0.5 mm 0 mps 697 mmHg 93%
    03:00 +22°C° 0.5 mm 0 mps 696 mmHg 93%
    04:00 +22°C° 0.5 mm 0 mps 697 mmHg 93%
    05:00 +22°C° 0.5 mm 0 mps 697 mmHg 92%
    06:00 +22°C° 0.5 mm 0 mps 697 mmHg 91%
    07:00 +23°C° 0.3 mm 0 mps 698 mmHg 86%
    08:00 +27°C° 0.3 mm 1 mps 698 mmHg 80%
    09:00 +28°C° 0.3 mm 1 mps 699 mmHg 75%
    10:00 +28°C° 0.8 mm 1 mps 698 mmHg 74%
    11:00 +29°C° 0.8 mm 1 mps 698 mmHg 73%
    12:00 +29°C° 0.8 mm 1 mps 697 mmHg 72%
    13:00 +28°C° 1.2 mm 1 mps 697 mmHg 74%
    14:00 +28°C° 1.2 mm 1 mps 696 mmHg 76%
    15:00 +28°C° 1.2 mm 2 mps 695 mmHg 78%
    16:00 +27°C° 1.8 mm 1 mps 696 mmHg 82%
    17:00 +26°C° 1.8 mm 1 mps 696 mmHg 87%
    18:00 +25°C° 1.8 mm 1 mps 696 mmHg 91%
    19:00 +25°C° 1.3 mm 1 mps 697 mmHg 91%
    20:00 +22°C° 1.3 mm 0 mps 697 mmHg 92%
    21:00 +22°C° 1.3 mm 0 mps 698 mmHg 93%
    22:00 +22°C° 0.9 mm 0 mps 697 mmHg 93%
    23:00 +22°C° 0.9 mm 0 mps 697 mmHg 92%

    26 May, Saturday

    Time Temperature Precipitation Wind Pressure Humidity
    00:00 +22°C° 0.9 mm 0 mps 697 mmHg 92%
    01:00 +22°C° 0.6 mm 0 mps 696 mmHg 92%
    02:00 +22°C° 0.6 mm 0 mps 696 mmHg 92%
    03:00 +22°C° 0.6 mm 0 mps 696 mmHg 92%
    04:00 +22°C° 0.4 mm 0 mps 696 mmHg 91%
    05:00 +22°C° 0.4 mm 0 mps 696 mmHg 90%
    06:00 +22°C° 0.4 mm 0 mps 697 mmHg 89%
    07:00 +23°C° 0.5 mm 0 mps 697 mmHg 85%
    08:00 +24°C° 0.5 mm 0 mps 697 mmHg 81%
    09:00 +28°C° 0.5 mm 1 mps 698 mmHg 76%
    10:00 +28°C° 0.9 mm 1 mps 697 mmHg 76%
    11:00 +28°C° 0.9 mm 1 mps 697 mmHg 76%
    12:00 +28°C° 0.9 mm 2 mps 697 mmHg 75%
    13:00 +28°C° 2.7 mm 2 mps 696 mmHg 78%
    14:00 +27°C° 2.7 mm 2 mps 696 mmHg 81%
    15:00 +27°C° 2.7 mm 2 mps 695 mmHg 84%
    16:00 +26°C° 4.9 mm 1 mps 695 mmHg 87%
    17:00 +25°C° 4.9 mm 1 mps 696 mmHg 91%
    18:00 +24°C° 4.9 mm 1 mps 696 mmHg 94%
    19:00 +22°C° 3.6 mm 0 mps 696 mmHg 93%
    20:00 +22°C° 3.6 mm 0 mps 697 mmHg 93%
    21:00 +22°C° 3.6 mm 0 mps 697 mmHg 92%
    22:00 +22°C° 1 mm 0 mps 697 mmHg 93%
    23:00 +22°C° 1 mm 0 mps 697 mmHg 93%
    Show more